owner,sensor,date,latitude,longitude,vertical_datum,mass_concentration_of_oxygen_in_sea_water,qcFlag 
DISL,ioos:station:DISL:KATA:1,2011-04-15T18:30:00Z,30.2583,-88.2131,4.42,3.19,1111122 
DISL,ioos:station:DISL:KATA:1,2011-04-15T19:00:00Z,30.2583,-88.2131,4.379,3.22,1111122 
DISL,ioos:station:DISL:KATA:1,2011-04-15T19:30:00Z,30.2583,-88.2131,4.334,3.11,1111122 
DISL,ioos:station:DISL:KATA:1,2011-04-15T20:00:00Z,30.2583,-88.2131,4.305,3.0,1111122 
DISL,ioos:station:DISL:KATA:1,2011-04-15T20:30:00Z,30.2583,-88.2131,4.335,2.92,1111122 
DISL,ioos:station:DISL:KATA:1,2011-04-15T21:00:00Z,30.2583,-88.2131,4.361,2.89,1111122 
DISL,ioos:station:DISL:KATA:1,2011-04-15T21:30:00Z,30.2583,-88.2131,4.393,2.91,1111122 
DISL,ioos:station:DISL:KATA:1,2011-04-15T22:00:00Z,30.2583,-88.2131,4.421,2.94,1111122 
DISL,ioos:station:DISL:KATA:1,2011-04-15T22:30:00Z,30.2583,-88.2131,4.465,2.97,1111122 
DISL,ioos:station:DISL:KATA:1,2011-04-15T23:00:00Z,30.2583,-88.2131,4.493,2.92,1111122 
DISL,ioos:station:DISL:KATA:1,2011-04-15T23:30:00Z,30.2583,-88.2131,4.517,3.04,1111122 
DISL,ioos:station:DISL:KATA:1,2011-04-16T00:00:00Z,30.2583,-88.2131,4.516,3.42,1111122 
DISL,ioos:station:DISL:KATA:1,2011-04-16T00:30:00Z,30.2583,-88.2131,4.536,3.78,1111122 
DISL,ioos:station:DISL:KATA:1,2011-04-16T01:00:00Z,30.2583,-88.2131,4.505,3.73,1111122 
DISL,ioos:station:DISL:KATA:1,2011-04-16T01:30:00Z,30.2583,-88.2131,4.516,3.49,1111122 
DISL,ioos:station:DISL:KATA:1,2011-04-16T02:00:00Z,30.2583,-88.2131,4.514,3.74,1111122 
DISL,ioos:station:DISL:KATA:1,2011-04-16T02:30:00Z,30.2583,-88.2131,4.492,3.47,1111122 
DISL,ioos:station:DISL:KATA:1,2011-04-16T03:00:00Z,30.2583,-88.2131,4.509,3.38,1111122 
DISL,ioos:station:DISL:KATA:1,2011-04-16T03:30:00Z,30.2583,-88.2131,4.552,3.21,1111122 
DISL,ioos:station:DISL:KATA:1,2011-04-16T04:00:00Z,30.2583,-88.2131,4.602,4.95,1111122 
DISL,ioos:station:DISL:KATA:1,2011-04-16T04:30:00Z,30.2583,-88.2131,4.625,6.05,1111122 
DISL,ioos:station:DISL:KATA:1,2011-04-16T05:00:00Z,30.2583,-88.2131,4.634,6.68,1111122 
DISL,ioos:station:DISL:KATA:1,2011-04-16T05:30:00Z,30.2583,-88.2131,4.623,6.82,1111122 
DISL,ioos:station:DISL:KATA:1,2011-04-16T06:00:00Z,30.2583,-88.2131,4.638,6.9,1111122 
DISL,ioos:station:DISL:KATA:1,2011-04-16T06:30:00Z,30.2583,-88.2131,4.644,6.91,1111122 
DISL,ioos:station:DISL:KATA:1,2011-04-16T07:00:00Z,30.2583,-88.2131,4.595,6.49,1111122 
DISL,ioos:station:DISL:KATA:1,2011-04-16T07:30:00Z,30.2583,-88.2131,4.526,6.41,1111122 
DISL,ioos:station:DISL:KATA:1,2011-04-16T08:00:00Z,30.2583,-88.2131,4.471,6.51,1111122 
DISL,ioos:station:DISL:KATA:1,2011-04-16T08:30:00Z,30.2583,-88.2131,4.414,6.57,1111122 
DISL,ioos:station:DISL:KATA:1,2011-04-16T09:00:00Z,30.2583,-88.2131,4.368,6.65,1111122 
DISL,ioos:station:DISL:KATA:1,2011-04-16T09:30:00Z,30.2583,-88.2131,4.332,6.45,1111122 
DISL,ioos:station:DISL:KATA:1,2011-04-16T10:00:00Z,30.2583,-88.2131,4.32,6.32,1111122 
DISL,ioos:station:DISL:KATA:1,2011-04-16T10:30:00Z,30.2583,-88.2131,4.324,6.29,1111122 
DISL,ioos:station:DISL:KATA:1,2011-04-16T11:00:00Z,30.2583,-88.2131,4.295,6.17,1111122 
DISL,ioos:station:DISL:KATA:1,2011-04-16T11:30:00Z,30.2583,-88.2131,4.339,6.11,1111122 
DISL,ioos:station:DISL:KATA:1,2011-04-16T12:00:00Z,30.2583,-88.2131,4.343,6.08,1111122 
DISL,ioos:station:DISL:KATA:1,2011-04-16T12:30:00Z,30.2583,-88.2131,4.34,5.9,1111122 
DISL,ioos:station:DISL:KATA:1,2011-04-16T13:00:00Z,30.2583,-88.2131,4.464,5.82,1111122 
DISL,ioos:station:DISL:KATA:1,2011-04-16T13:30:00Z,30.2583,-88.2131,4.518,5.48,1111122 
DISL,ioos:station:DISL:KATA:1,2011-04-16T14:00:00Z,30.2583,-88.2131,4.567,6.21,1111122 
DISL,ioos:station:DISL:KATA:1,2011-04-16T14:30:00Z,30.2583,-88.2131,4.533,6.46,1111122 
DISL,ioos:station:DISL:KATA:1,2011-04-16T15:00:00Z,30.2583,-88.2131,4.58,6.35,1111122 
DISL,ioos:station:DISL:KATA:1,2011-04-16T15:30:00Z,30.2583,-88.2131,4.555,6.44,1111122 
DISL,ioos:station:DISL:KATA:1,2011-04-16T16:00:00Z,30.2583,-88.2131,4.462,6.3,1111122 
DISL,ioos:station:DISL:KATA:1,2011-04-16T16:30:00Z,30.2583,-88.2131,4.425,6.37,1111122 
DISL,ioos:station:DISL:KATA:1,2011-04-16T17:00:00Z,30.2583,-88.2131,4.408,6.43,1111122 
DISL,ioos:station:DISL:KATA:1,2011-04-16T17:30:00Z,30.2583,-88.2131,4.384,6.49,1111122 
DISL,ioos:station:DISL:KATA:1,2011-04-16T18:00:00Z,30.2583,-88.2131,4.345,6.53,1111122 
DISL,ioos:station:DISL:KATA:1,2011-04-16T18:30:00Z,30.2583,-88.2131,4.316,6.7,1111122 
DISL,ioos:station:DISL:KATA:1,2011-04-16T19:00:00Z,30.2583,-88.2131,4.287,6.99,1111122 
DISL,ioos:station:DISL:KATA:1,2011-04-16T19:30:00Z,30.2583,-88.2131,4.238,7.04,1111122 
DISL,ioos:station:DISL:KATA:1,2011-04-16T20:00:00Z,30.2583,-88.2131,4.221,7.03,1111122 
DISL,ioos:station:DISL:KATA:1,2011-04-16T20:30:00Z,30.2583,-88.2131,4.204,6.93,1111122 
DISL,ioos:station:DISL:KATA:1,2011-04-16T21:00:00Z,30.2583,-88.2131,4.186,7.33,1111122 
DISL,ioos:station:DISL:KATA:1,2011-04-16T21:30:00Z,30.2583,-88.2131,4.167,7.24,1111122 
DISL,ioos:station:DISL:KATA:1,2011-04-16T22:00:00Z,30.2583,-88.2131,4.139,7.33,1111122 
DISL,ioos:station:DISL:KATA:1,2011-04-16T22:30:00Z,30.2583,-88.2131,4.151,7.47,1111122 
DISL,ioos:station:DISL:KATA:1,2011-04-16T23:00:00Z,30.2583,-88.2131,4.128,7.64,1111122 
DISL,ioos:station:DISL:KATA:1,2011-04-16T23:30:00Z,30.2583,-88.2131,4.116,6.88,1111122 
DISL,ioos:station:DISL:KATA:1,2011-04-17T00:00:00Z,30.2583,-88.2131,4.111,6.82,1111122 
DISL,ioos:station:DISL:KATA:1,2011-04-17T00:30:00Z,30.2583,-88.2131,4.106,7.27,1111122 
DISL,ioos:station:DISL:KATA:1,2011-04-17T01:00:00Z,30.2583,-88.2131,4.109,7.46,1111122 
DISL,ioos:station:DISL:KATA:1,2011-04-17T01:30:00Z,30.2583,-88.2131,4.11,7.61,1111122 
DISL,ioos:station:DISL:KATA:1,2011-04-17T02:00:00Z,30.2583,-88.2131,4.12,7.72,1111122 
DISL,ioos:station:DISL:KATA:1,2011-04-17T02:30:00Z,30.2583,-88.2131,4.126,7.68,1111122 
DISL,ioos:station:DISL:KATA:1,2011-04-17T03:00:00Z,30.2583,-88.2131,4.134,7.33,1111122 
DISL,ioos:station:DISL:KATA:1,2011-04-17T03:30:00Z,30.2583,-88.2131,4.148,7.19,1111122 
DISL,ioos:station:DISL:KATA:1,2011-04-17T04:00:00Z,30.2583,-88.2131,4.156,7.1,1111122 
DISL,ioos:station:DISL:KATA:1,2011-04-17T04:30:00Z,30.2583,-88.2131,4.166,6.8,1111122 
DISL,ioos:station:DISL:KATA:1,2011-04-17T05:00:00Z,30.2583,-88.2131,4.174,6.63,1111122 
DISL,ioos:station:DISL:KATA:1,2011-04-17T05:30:00Z,30.2583,-88.2131,4.186,6.38,1111122 
DISL,ioos:station:DISL:KATA:1,2011-04-17T06:00:00Z,30.2583,-88.2131,4.187,6.46,1111122 
DISL,ioos:station:DISL:KATA:1,2011-04-17T06:30:00Z,30.2583,-88.2131,4.168,6.42,1111122 
DISL,ioos:station:DISL:KATA:1,2011-04-17T07:00:00Z,30.2583,-88.2131,4.148,6.48,1111122 
DISL,ioos:station:DISL:KATA:1,2011-04-17T07:30:00Z,30.2583,-88.2131,4.137,6.6,1111122 
DISL,ioos:station:DISL:KATA:1,2011-04-17T08:00:00Z,30.2583,-88.2131,4.141,6.8,1111122 
DISL,ioos:station:DISL:KATA:1,2011-04-17T08:30:00Z,30.2583,-88.2131,4.148,6.79,1111122 
DISL,ioos:station:DISL:KATA:1,2011-04-17T09:00:00Z,30.2583,-88.2131,4.164,6.79,1111122 
DISL,ioos:station:DISL:KATA:1,2011-04-17T09:30:00Z,30.2583,-88.2131,4.175,6.72,1111122 
DISL,ioos:station:DISL:KATA:1,2011-04-17T10:00:00Z,30.2583,-88.2131,4.183,6.47,1111122 
DISL,ioos:station:DISL:KATA:1,2011-04-17T10:30:00Z,30.2583,-88.2131,4.212,6.76,1111122 
DISL,ioos:station:DISL:KATA:1,2011-04-17T11:00:00Z,30.2583,-88.2131,4.245,6.64,1111122 
DISL,ioos:station:DISL:KATA:1,2011-04-17T11:30:00Z,30.2583,-88.2131,4.29,6.58,1111122 
DISL,ioos:station:DISL:KATA:1,2011-04-17T12:00:00Z,30.2583,-88.2131,4.345,6.55,1111122 
DISL,ioos:station:DISL:KATA:1,2011-04-17T12:30:00Z,30.2583,-88.2131,4.388,6.55,1111122 
DISL,ioos:station:DISL:KATA:1,2011-04-17T13:00:00Z,30.2583,-88.2131,4.425,6.58,1111122 
DISL,ioos:station:DISL:KATA:1,2011-04-17T13:30:00Z,30.2583,-88.2131,4.43,6.66,1111122 
DISL,ioos:station:DISL:KATA:1,2011-04-17T14:00:00Z,30.2583,-88.2131,4.434,6.71,1111122 
DISL,ioos:station:DISL:KATA:1,2011-04-17T14:30:00Z,30.2583,-88.2131,4.426,6.81,1111122 
DISL,ioos:station:DISL:KATA:1,2011-04-17T15:00:00Z,30.2583,-88.2131,4.427,6.81,1111122 
DISL,ioos:station:DISL:KATA:1,2011-04-17T15:30:00Z,30.2583,-88.2131,4.428,6.85,1111122 
DISL,ioos:station:DISL:KATA:1,2011-04-17T16:00:00Z,30.2583,-88.2131,4.421,6.79,1111122 
DISL,ioos:station:DISL:KATA:1,2011-04-17T16:30:00Z,30.2583,-88.2131,4.423,6.87,1111122 
DISL,ioos:station:DISL:KATA:1,2011-04-17T17:00:00Z,30.2583,-88.2131,4.448,6.88,1111122 
DISL,ioos:station:DISL:KATA:1,2011-04-17T17:30:00Z,30.2583,-88.2131,4.464,6.89,1111122 
DISL,ioos:station:DISL:KATA:1,2011-04-17T18:00:00Z,30.2583,-88.2131,4.472,6.76,1111122 
DISL,ioos:station:DISL:KATA:1,2011-04-17T18:30:00Z,30.2583,-88.2131,4.456,6.71,1111122 
DISL,ioos:station:DISL:KATA:1,2011-04-17T19:00:00Z,30.2583,-88.2131,4.408,6.66,1111122 
DISL,ioos:station:DISL:KATA:1,2011-04-17T19:30:00Z,30.2583,-88.2131,4.345,6.43,1111122 
DISL,ioos:station:DISL:KATA:1,2011-04-17T20:00:00Z,30.2583,-88.2131,4.273,6.53,1111122 
DISL,ioos:station:DISL:KATA:1,2011-04-17T20:30:00Z,30.2583,-88.2131,4.212,6.56,1111122 
DISL,ioos:station:DISL:KATA:1,2011-04-17T21:00:00Z,30.2583,-88.2131,4.168,6.69,1111122 
DISL,ioos:station:DISL:KATA:1,2011-04-17T21:30:00Z,30.2583,-88.2131,4.12,6.94,1111122 
DISL,ioos:station:DISL:KATA:1,2011-04-17T22:00:00Z,30.2583,-88.2131,4.078,6.89,1111122 
DISL,ioos:station:DISL:KATA:1,2011-04-17T22:30:00Z,30.2583,-88.2131,4.044,6.93,1111122 
DISL,ioos:station:DISL:KATA:1,2011-04-17T23:00:00Z,30.2583,-88.2131,4.018,6.95,1111122 
DISL,ioos:station:DISL:KATA:1,2011-04-17T23:30:00Z,30.2583,-88.2131,4.009,7.0,1111122 
DISL,ioos:station:DISL:KATA:1,2011-04-18T00:00:00Z,30.2583,-88.2131,4.008,6.83,1111122 
DISL,ioos:station:DISL:KATA:1,2011-04-18T00:30:00Z,30.2583,-88.2131,4.017,6.61,1111122 
DISL,ioos:station:DISL:KATA:1,2011-04-18T01:00:00Z,30.2583,-88.2131,4.03,6.44,1111122 
DISL,ioos:station:DISL:KATA:1,2011-04-18T01:30:00Z,30.2583,-88.2131,4.049,6.42,1111122 
DISL,ioos:station:DISL:KATA:1,2011-04-18T02:00:00Z,30.2583,-88.2131,4.074,6.35,1111122 
DISL,ioos:station:DISL:KATA:1,2011-04-18T02:30:00Z,30.2583,-88.2131,4.09,6.25,1111122 
DISL,ioos:station:DISL:KATA:1,2011-04-18T03:00:00Z,30.2583,-88.2131,4.101,6.23,1111122 
DISL,ioos:station:DISL:KATA:1,2011-04-18T03:30:00Z,30.2583,-88.2131,4.114,6.33,1111122 
DISL,ioos:station:DISL:KATA:1,2011-04-18T04:00:00Z,30.2583,-88.2131,4.134,6.43,1111122 
DISL,ioos:station:DISL:KATA:1,2011-04-18T04:30:00Z,30.2583,-88.2131,4.15,6.37,1111122 
DISL,ioos:station:DISL:KATA:1,2011-04-18T05:00:00Z,30.2583,-88.2131,4.179,6.07,1111122 
DISL,ioos:station:DISL:KATA:1,2011-04-18T05:30:00Z,30.2583,-88.2131,4.219,5.91,1111122 
DISL,ioos:station:DISL:KATA:1,2011-04-18T06:00:00Z,30.2583,-88.2131,4.263,6.1,1111122 
DISL,ioos:station:DISL:KATA:1,2011-04-18T06:30:00Z,30.2583,-88.2131,4.296,6.25,1111122 
DISL,ioos:station:DISL:KATA:1,2011-04-18T07:00:00Z,30.2583,-88.2131,4.319,6.27,1111122 
DISL,ioos:station:DISL:KATA:1,2011-04-18T07:30:00Z,30.2583,-88.2131,4.336,6.25,1111122 
DISL,ioos:station:DISL:KATA:1,2011-04-18T08:00:00Z,30.2583,-88.2131,4.339,6.28,1111122 
DISL,ioos:station:DISL:KATA:1,2011-04-18T08:30:00Z,30.2583,-88.2131,4.342,6.34,1111122 
DISL,ioos:station:DISL:KATA:1,2011-04-18T09:00:00Z,30.2583,-88.2131,4.345,6.35,1111122 
DISL,ioos:station:DISL:KATA:1,2011-04-18T09:30:00Z,30.2583,-88.2131,4.352,6.32,1111122 
DISL,ioos:station:DISL:KATA:1,2011-04-18T10:00:00Z,30.2583,-88.2131,4.369,6.3,1111122 
DISL,ioos:station:DISL:KATA:1,2011-04-18T10:30:00Z,30.2583,-88.2131,4.383,6.43,1111122 
DISL,ioos:station:DISL:KATA:1,2011-04-18T11:00:00Z,30.2583,-88.2131,4.415,6.4,1111122 
DISL,ioos:station:DISL:KATA:1,2011-04-18T11:30:00Z,30.2583,-88.2131,4.443,6.32,1111122 
DISL,ioos:station:DISL:KATA:1,2011-04-18T12:00:00Z,30.2583,-88.2131,4.476,6.44,1111122 
DISL,ioos:station:DISL:KATA:1,2011-04-18T12:30:00Z,30.2583,-88.2131,4.507,6.66,1111122 
DISL,ioos:station:DISL:KATA:1,2011-04-18T13:00:00Z,30.2583,-88.2131,4.529,6.64,1111122 
DISL,ioos:station:DISL:KATA:1,2011-04-18T13:30:00Z,30.2583,-88.2131,4.556,6.83,1111122 
DISL,ioos:station:DISL:KATA:1,2011-04-18T14:00:00Z,30.2583,-88.2131,4.576,6.97,1111122 
DISL,ioos:station:DISL:KATA:1,2011-04-18T14:30:00Z,30.2583,-88.2131,4.588,7.05,1111122 
DISL,ioos:station:DISL:KATA:1,2011-04-18T15:00:00Z,30.2583,-88.2131,4.585,6.99,1111122 
DISL,ioos:station:DISL:KATA:1,2011-04-18T15:30:00Z,30.2583,-88.2131,4.583,6.91,1111122 
DISL,ioos:station:DISL:KATA:1,2011-04-18T16:00:00Z,30.2583,-88.2131,4.567,6.85,1111122 
DISL,ioos:station:DISL:KATA:1,2011-04-18T16:30:00Z,30.2583,-88.2131,4.552,6.8,1111122 
DISL,ioos:station:DISL:KATA:1,2011-04-18T17:00:00Z,30.2583,-88.2131,4.536,6.73,1111122 
DISL,ioos:station:DISL:KATA:1,2011-04-18T17:30:00Z,30.2583,-88.2131,4.523,6.75,1111122 
DISL,ioos:station:DISL:KATA:1,2011-04-18T18:00:00Z,30.2583,-88.2131,4.491,6.73,1111122 
DISL,ioos:station:DISL:KATA:1,2011-04-18T18:30:00Z,30.2583,-88.2131,4.467,6.71,1111122 
DISL,ioos:station:DISL:KATA:1,2011-04-18T19:00:00Z,30.2583,-88.2131,4.442,6.71,1111122 
DISL,ioos:station:DISL:KATA:1,2011-04-18T19:30:00Z,30.2583,-88.2131,4.397,6.61,1111122 
DISL,ioos:station:DISL:KATA:1,2011-04-18T20:00:00Z,30.2583,-88.2131,4.342,6.54,1111122 
DISL,ioos:station:DISL:KATA:1,2011-04-18T20:30:00Z,30.2583,-88.2131,4.284,6.39,1111122 
DISL,ioos:station:DISL:KATA:1,2011-04-18T21:00:00Z,30.2583,-88.2131,4.215,6.81,1111122 
DISL,ioos:station:DISL:KATA:1,2011-04-18T21:30:00Z,30.2583,-88.2131,4.143,7.36,1111122 
DISL,ioos:station:DISL:KATA:1,2011-04-18T22:00:00Z,30.2583,-88.2131,4.08,7.7,1111122 
DISL,ioos:station:DISL:KATA:1,2011-04-18T22:30:00Z,30.2583,-88.2131,4.023,7.86,1111122 
DISL,ioos:station:DISL:KATA:1,2011-04-18T23:00:00Z,30.2583,-88.2131,3.985,8.01,1111122 
DISL,ioos:station:DISL:KATA:1,2011-04-18T23:30:00Z,30.2583,-88.2131,3.958,7.96,1111122 
DISL,ioos:station:DISL:KATA:1,2011-04-19T00:00:00Z,30.2583,-88.2131,3.943,8.02,1111122 
DISL,ioos:station:DISL:KATA:1,2011-04-19T00:30:00Z,30.2583,-88.2131,3.939,8.08,1111122 
DISL,ioos:station:DISL:KATA:1,2011-04-19T01:00:00Z,30.2583,-88.2131,3.937,6.53,1111122 
DISL,ioos:station:DISL:KATA:1,2011-04-19T01:30:00Z,30.2583,-88.2131,3.956,6.56,1111122 
DISL,ioos:station:DISL:KATA:1,2011-04-19T02:00:00Z,30.2583,-88.2131,3.973,6.65,1111122 
DISL,ioos:station:DISL:KATA:1,2011-04-19T02:30:00Z,30.2583,-88.2131,3.99,6.56,1111122 
DISL,ioos:station:DISL:KATA:1,2011-04-19T03:00:00Z,30.2583,-88.2131,3.998,6.34,1111122 
DISL,ioos:station:DISL:KATA:1,2011-04-19T03:30:00Z,30.2583,-88.2131,4.002,6.06,1111122 
DISL,ioos:station:DISL:KATA:1,2011-04-19T04:00:00Z,30.2583,-88.2131,4.02,5.73,1111122 
DISL,ioos:station:DISL:KATA:1,2011-04-19T04:30:00Z,30.2583,-88.2131,4.044,4.67,1111122 
DISL,ioos:station:DISL:KATA:1,2011-04-19T05:00:00Z,30.2583,-88.2131,4.071,4.08,1111122 
DISL,ioos:station:DISL:KATA:1,2011-04-19T05:30:00Z,30.2583,-88.2131,4.102,3.83,1111122 
DISL,ioos:station:DISL:KATA:1,2011-04-19T06:00:00Z,30.2583,-88.2131,4.137,3.76,1111122 
DISL,ioos:station:DISL:KATA:1,2011-04-19T06:30:00Z,30.2583,-88.2131,4.174,3.65,1111122 
DISL,ioos:station:DISL:KATA:1,2011-04-19T07:00:00Z,30.2583,-88.2131,4.208,3.51,1111122 
DISL,ioos:station:DISL:KATA:1,2011-04-19T07:30:00Z,30.2583,-88.2131,4.248,3.56,1111122 
DISL,ioos:station:DISL:KATA:1,2011-04-19T08:00:00Z,30.2583,-88.2131,4.277,3.75,1111122 
DISL,ioos:station:DISL:KATA:1,2011-04-19T08:30:00Z,30.2583,-88.2131,4.305,3.79,1111122 
DISL,ioos:station:DISL:KATA:1,2011-04-19T09:00:00Z,30.2583,-88.2131,4.332,3.76,1111122 
DISL,ioos:station:DISL:KATA:1,2011-04-19T09:30:00Z,30.2583,-88.2131,4.356,3.7,1111122 
DISL,ioos:station:DISL:KATA:1,2011-04-19T10:00:00Z,30.2583,-88.2131,4.379,3.62,1111122 
DISL,ioos:station:DISL:KATA:1,2011-04-19T10:30:00Z,30.2583,-88.2131,4.407,3.51,1111122 
DISL,ioos:station:DISL:KATA:1,2011-04-19T11:00:00Z,30.2583,-88.2131,4.432,3.55,1111122 
DISL,ioos:station:DISL:KATA:1,2011-04-19T11:30:00Z,30.2583,-88.2131,4.453,3.65,1111122 
DISL,ioos:station:DISL:KATA:1,2011-04-19T12:00:00Z,30.2583,-88.2131,4.481,3.82,1111122 
DISL,ioos:station:DISL:KATA:1,2011-04-19T12:30:00Z,30.2583,-88.2131,4.518,3.86,1111122 
DISL,ioos:station:DISL:KATA:1,2011-04-19T13:00:00Z,30.2583,-88.2131,4.564,4.21,1111122 
DISL,ioos:station:DISL:KATA:1,2011-04-19T13:30:00Z,30.2583,-88.2131,4.606,4.34,1111122 
DISL,ioos:station:DISL:KATA:1,2011-04-19T14:00:00Z,30.2583,-88.2131,4.63,4.48,1111122 
DISL,ioos:station:DISL:KATA:1,2011-04-19T14:30:00Z,30.2583,-88.2131,4.649,4.59,1111122 
DISL,ioos:station:DISL:KATA:1,2011-04-19T15:00:00Z,30.2583,-88.2131,4.66,4.77,1111122 
DISL,ioos:station:DISL:KATA:1,2011-04-19T15:30:00Z,30.2583,-88.2131,4.655,4.87,1111122 
DISL,ioos:station:DISL:KATA:1,2011-04-19T16:00:00Z,30.2583,-88.2131,4.644,5.04,1111122 
DISL,ioos:station:DISL:KATA:1,2011-04-19T16:30:00Z,30.2583,-88.2131,4.622,5.07,1111122 
DISL,ioos:station:DISL:KATA:1,2011-04-19T17:00:00Z,30.2583,-88.2131,4.6,5.05,1111122 
DISL,ioos:station:DISL:KATA:1,2011-04-19T17:30:00Z,30.2583,-88.2131,4.588,5.18,1111122 
DISL,ioos:station:DISL:KATA:1,2011-04-19T18:00:00Z,30.2583,-88.2131,4.571,4.83,1111122 
DISL,ioos:station:DISL:KATA:1,2011-04-19T18:30:00Z,30.2583,-88.2131,4.562,4.94,1111122 
DISL,ioos:station:DISL:KATA:1,2011-04-19T19:00:00Z,30.2583,-88.2131,4.539,4.96,1111122 
DISL,ioos:station:DISL:KATA:1,2011-04-19T19:30:00Z,30.2583,-88.2131,4.496,5.01,1111122 
DISL,ioos:station:DISL:KATA:1,2011-04-19T20:00:00Z,30.2583,-88.2131,4.452,5.04,1111122 
DISL,ioos:station:DISL:KATA:1,2011-04-19T20:30:00Z,30.2583,-88.2131,4.395,5.03,1111122 
DISL,ioos:station:DISL:KATA:1,2011-04-19T21:00:00Z,30.2583,-88.2131,4.341,5.1,1111122 
DISL,ioos:station:DISL:KATA:1,2011-04-19T21:30:00Z,30.2583,-88.2131,4.277,5.11,1111122 
DISL,ioos:station:DISL:KATA:1,2011-04-19T22:00:00Z,30.2583,-88.2131,4.212,5.04,1111122 
DISL,ioos:station:DISL:KATA:1,2011-04-19T22:30:00Z,30.2583,-88.2131,4.146,5.17,1111122 
DISL,ioos:station:DISL:KATA:1,2011-04-19T23:00:00Z,30.2583,-88.2131,4.082,4.96,1111122 
DISL,ioos:station:DISL:KATA:1,2011-04-19T23:30:00Z,30.2583,-88.2131,4.034,4.86,1111122 
DISL,ioos:station:DISL:KATA:1,2011-04-20T00:00:00Z,30.2583,-88.2131,3.991,4.66,1111122 
DISL,ioos:station:DISL:KATA:1,2011-04-20T00:30:00Z,30.2583,-88.2131,3.962,4.54,1111122 
DISL,ioos:station:DISL:KATA:1,2011-04-20T01:00:00Z,30.2583,-88.2131,3.945,4.6,1111122 
DISL,ioos:station:DISL:KATA:1,2011-04-20T01:30:00Z,30.2583,-88.2131,3.939,4.62,1111122 
DISL,ioos:station:DISL:KATA:1,2011-04-20T02:00:00Z,30.2583,-88.2131,3.951,4.71,1111122 
DISL,ioos:station:DISL:KATA:1,2011-04-20T02:30:00Z,30.2583,-88.2131,3.968,4.82,1111122 
DISL,ioos:station:DISL:KATA:1,2011-04-20T03:00:00Z,30.2583,-88.2131,3.983,4.85,1111122 
DISL,ioos:station:DISL:KATA:1,2011-04-20T03:30:00Z,30.2583,-88.2131,4.004,5.03,1111122 
DISL,ioos:station:DISL:KATA:1,2011-04-20T04:00:00Z,30.2583,-88.2131,4.02,5.1,1111122 
DISL,ioos:station:DISL:KATA:1,2011-04-20T04:30:00Z,30.2583,-88.2131,4.034,4.95,1111122 
DISL,ioos:station:DISL:KATA:1,2011-04-20T05:00:00Z,30.2583,-88.2131,4.047,4.98,1111122 
DISL,ioos:station:DISL:KATA:1,2011-04-20T05:30:00Z,30.2583,-88.2131,4.07,5.0,1111122 
DISL,ioos:station:DISL:KATA:1,2011-04-20T06:00:00Z,30.2583,-88.2131,4.098,5.15,1111122 
DISL,ioos:station:DISL:KATA:1,2011-04-20T06:30:00Z,30.2583,-88.2131,4.138,5.32,1111122 
DISL,ioos:station:DISL:KATA:1,2011-04-20T07:00:00Z,30.2583,-88.2131,4.166,5.3,1111122 
DISL,ioos:station:DISL:KATA:1,2011-04-20T07:30:00Z,30.2583,-88.2131,4.206,5.51,1111122 
DISL,ioos:station:DISL:KATA:1,2011-04-20T08:00:00Z,30.2583,-88.2131,4.245,5.65,1111122 
DISL,ioos:station:DISL:KATA:1,2011-04-20T08:30:00Z,30.2583,-88.2131,4.288,5.77,1111122 
DISL,ioos:station:DISL:KATA:1,2011-04-20T09:00:00Z,30.2583,-88.2131,4.329,6.09,1111122 
DISL,ioos:station:DISL:KATA:1,2011-04-20T09:30:00Z,30.2583,-88.2131,4.366,6.3,1111122 
DISL,ioos:station:DISL:KATA:1,2011-04-20T10:00:00Z,30.2583,-88.2131,4.402,6.43,1111122 
DISL,ioos:station:DISL:KATA:1,2011-04-20T10:30:00Z,30.2583,-88.2131,4.435,6.5,1111122 
DISL,ioos:station:DISL:KATA:1,2011-04-20T11:00:00Z,30.2583,-88.2131,4.459,6.57,1111122 
DISL,ioos:station:DISL:KATA:1,2011-04-20T11:30:00Z,30.2583,-88.2131,4.49,6.48,1111122 
DISL,ioos:station:DISL:KATA:1,2011-04-20T12:00:00Z,30.2583,-88.2131,4.503,6.43,1111122 
DISL,ioos:station:DISL:KATA:1,2011-04-20T12:30:00Z,30.2583,-88.2131,4.513,6.48,1111122 
DISL,ioos:station:DISL:KATA:1,2011-04-20T13:00:00Z,30.2583,-88.2131,4.527,6.48,1111122 
DISL,ioos:station:DISL:KATA:1,2011-04-20T13:30:00Z,30.2583,-88.2131,4.552,6.49,1111122 
DISL,ioos:station:DISL:KATA:1,2011-04-20T14:00:00Z,30.2583,-88.2131,4.575,6.53,1111122 
DISL,ioos:station:DISL:KATA:1,2011-04-20T14:30:00Z,30.2583,-88.2131,4.607,6.49,1111122 
DISL,ioos:station:DISL:KATA:1,2011-04-20T15:00:00Z,30.2583,-88.2131,4.632,6.48,1111122 
DISL,ioos:station:DISL:KATA:1,2011-04-20T15:30:00Z,30.2583,-88.2131,4.649,6.49,1111122 
DISL,ioos:station:DISL:KATA:1,2011-04-20T16:00:00Z,30.2583,-88.2131,4.669,6.57,1111122 
DISL,ioos:station:DISL:KATA:1,2011-04-20T16:30:00Z,30.2583,-88.2131,4.664,6.52,1111122 
DISL,ioos:station:DISL:KATA:1,2011-04-20T17:00:00Z,30.2583,-88.2131,4.651,6.51,1111122 
DISL,ioos:station:DISL:KATA:1,2011-04-20T17:30:00Z,30.2583,-88.2131,4.621,6.46,1111122 
DISL,ioos:station:DISL:KATA:1,2011-04-20T18:00:00Z,30.2583,-88.2131,4.604,6.43,1111122 
DISL,ioos:station:DISL:KATA:1,2011-04-20T18:30:00Z,30.2583,-88.2131,4.573,6.37,1111122 
DISL,ioos:station:DISL:KATA:1,2011-04-20T19:00:00Z,30.2583,-88.2131,4.538,6.29,1111122 
DISL,ioos:station:DISL:KATA:1,2011-04-20T19:30:00Z,30.2583,-88.2131,4.498,6.24,1111122 
DISL,ioos:station:DISL:KATA:1,2011-04-20T20:00:00Z,30.2583,-88.2131,4.454,6.28,1111122 
DISL,ioos:station:DISL:KATA:1,2011-04-20T20:30:00Z,30.2583,-88.2131,4.392,6.36,1111122 
DISL,ioos:station:DISL:KATA:1,2011-04-20T21:00:00Z,30.2583,-88.2131,4.333,6.28,1111122 
DISL,ioos:station:DISL:KATA:1,2011-04-20T21:30:00Z,30.2583,-88.2131,4.265,6.2,1111122 
DISL,ioos:station:DISL:KATA:1,2011-04-20T22:00:00Z,30.2583,-88.2131,4.208,6.09,1111122 
DISL,ioos:station:DISL:KATA:1,2011-04-20T22:30:00Z,30.2583,-88.2131,4.15,6.13,1111122 
DISL,ioos:station:DISL:KATA:1,2011-04-20T23:00:00Z,30.2583,-88.2131,4.109,6.19,1111122 
DISL,ioos:station:DISL:KATA:1,2011-04-20T23:30:00Z,30.2583,-88.2131,4.07,6.11,1111122 
DISL,ioos:station:DISL:KATA:1,2011-04-21T00:00:00Z,30.2583,-88.2131,4.025,6.0,1111122 
DISL,ioos:station:DISL:KATA:1,2011-04-21T00:30:00Z,30.2583,-88.2131,3.988,6.02,1111122 
DISL,ioos:station:DISL:KATA:1,2011-04-21T01:00:00Z,30.2583,-88.2131,3.954,5.72,1111122 
DISL,ioos:station:DISL:KATA:1,2011-04-21T01:30:00Z,30.2583,-88.2131,3.939,5.58,1111122 
DISL,ioos:station:DISL:KATA:1,2011-04-21T02:00:00Z,30.2583,-88.2131,3.934,5.54,1111122 
DISL,ioos:station:DISL:KATA:1,2011-04-21T02:30:00Z,30.2583,-88.2131,3.939,5.47,1111122 
DISL,ioos:station:DISL:KATA:1,2011-04-21T03:00:00Z,30.2583,-88.2131,3.943,5.51,1111122 
DISL,ioos:station:DISL:KATA:1,2011-04-21T03:30:00Z,30.2583,-88.2131,3.96,5.54,1111122 
DISL,ioos:station:DISL:KATA:1,2011-04-21T04:00:00Z,30.2583,-88.2131,3.974,5.64,1111122 
DISL,ioos:station:DISL:KATA:1,2011-04-21T04:30:00Z,30.2583,-88.2131,3.99,5.64,1111122 
DISL,ioos:station:DISL:KATA:1,2011-04-21T05:00:00Z,30.2583,-88.2131,4.006,5.74,1111122 
DISL,ioos:station:DISL:KATA:1,2011-04-21T05:30:00Z,30.2583,-88.2131,4.018,5.82,1111122 
DISL,ioos:station:DISL:KATA:1,2011-04-21T06:00:00Z,30.2583,-88.2131,4.031,5.87,1111122 
DISL,ioos:station:DISL:KATA:1,2011-04-21T06:30:00Z,30.2583,-88.2131,4.037,5.92,1111122 
DISL,ioos:station:DISL:KATA:1,2011-04-21T07:00:00Z,30.2583,-88.2131,4.045,5.93,1111122 
DISL,ioos:station:DISL:KATA:1,2011-04-21T07:30:00Z,30.2583,-88.2131,4.059,5.79,1111122 
DISL,ioos:station:DISL:KATA:1,2011-04-21T08:00:00Z,30.2583,-88.2131,4.085,5.67,1111122 
DISL,ioos:station:DISL:KATA:1,2011-04-21T08:30:00Z,30.2583,-88.2131,4.119,5.64,1111122 
DISL,ioos:station:DISL:KATA:1,2011-04-21T09:00:00Z,30.2583,-88.2131,4.141,5.67,1111122 
DISL,ioos:station:DISL:KATA:1,2011-04-21T09:30:00Z,30.2583,-88.2131,4.161,5.69,1111122 
DISL,ioos:station:DISL:KATA:1,2011-04-21T10:00:00Z,30.2583,-88.2131,4.187,5.68,1111122 